Regional Weather Roundup
Issued by NWS

Home | Current Version | Previous Version | Graphics & Text | Print | Product List | Glossary On
Versions: 1 2 3 4 5 6 7 8 9 10 11 12 13 14 15 16 17 18 19 20 21 22 23 24 25 26 27
000
ASUS45 KTFX 231310
RWRMT
MONTANA REGIONAL WEATHER ROUNDUP
NATIONAL WEATHER SERVICE GREAT FALLS MT
600 AM MST MON JAN 23 2017

NOTE: "FAIR" INDICATES FEW OR NO CLOUDS BELOW 12000 FEET WITH NO
SIGNIFICANT WEATHER AND/OR OBSTRUCTIONS TO VISIBILITY.

MTZ001>007-043-231400-
WEST OF THE DIVIDE

CITY           SKY/WX    TMP DP  RH WIND       PRES   REMARKS
KALISPELL      CLOUDY    30  24  78 N13       29.67R WCI  20
MISSOULA       FOG       23  23 100 NW3       29.67R VSB 1/4
BUTTE          CLOUDY     5   1  83 CALM      29.60R
MULLAN PASS    LGT SNOW  23  21  92 NW3       29.55F FOG
ANACONDA         N/A     16   9  73 S8        29.60F WCI   5
DEER LODGE       N/A     19  16  86 CALM      29.64R
EUREKA           N/A     23  19  86 CALM      29.70S
HAMILTON         N/A     18  16  93 CALM      29.65R VSB 0
$$

MTZ008-052>055-231400-
SOUTHWEST MONTANA

CITY           SKY/WX    TMP DP  RH WIND       PRES   REMARKS
BOZEMAN        FOG        5   3  91 N5        29.63R VSB 1
DILLON         CLOUDY   N/A N/A N/A S8        29.59R
W YELLOWSTONE  FLURRIES  19  19 100 CALM      29.59R
ENNIS          CLEAR     19  16  86 SE9       29.63R WCI   9
$$

MTZ009-010-012-014-046-048-049-054-231400-
EAST SLOPES AND CENTRAL MONTANA

CITY           SKY/WX    TMP DP  RH WIND       PRES   REMARKS
CUT BANK       LGT SNOW  18  16  92 N8        29.72R FOG     WCI   8
GREAT FALLS    LGT SNOW  22  20  92 W5        29.70S FOG
MALMSTROM AFB  FLURRIES  22  22 100 W6        29.72R WCI  15
HELENA         CLOUDY    24  19  81 W5        29.67R
AUGUSTA        CLOUDY    20  20  98 N10       29.67S WCI   9
BOWMANS CRNR   FLURRIES  19  18  97 N5        29.66S
CHOTEAU          N/A     21  21 100 N8        29.72S WCI  12
POWER          FLURRIES  21  20  96 NW8       29.70R WCI  11
RAYNESFORD     FLURRIES  22  22  97 NW3       29.68R
ULM            CLOUDY    22  22  98 MISG      29.71R
$$

MTZ011-013-016-021-045-047-050-051-231400-
NORTH CENTRAL MONTANA

CITY           SKY/WX    TMP DP  RH WIND       PRES   REMARKS
HAVRE          LGT SNOW  24  22  91 NE9       29.74S FOG     WCI  14
LEWISTOWN      FLURRIES  22  20  92 W7        29.65S WCI  13
CHINOOK          N/A     27  25  93 NE3       29.76R
DENTON         LGT SNOW  23  23  97 N3G17     29.65S VSB 3/4
FORT BENTON      N/A    N/A N/A N/A MISG      29.74S
GEYSER         FLURRIES  22  21  96 E6        29.65S WCI  14
GRASS RANGE    FOG       21  21  98 NE5       29.63S VSB 7/8
JUDITH GAP     SNOW      20  18  93 N14       29.61S VSB 1/2 WCI   7
ROY            FOG       23  22  99 MISG      29.66F VSB 3/8
STANFORD       FLURRIES  20  20  98 CALM      29.64S
WINIFRED       LGT SNOW  22  22  98 CALM      29.67S FOG
$$

MTZ017>020-022>027-061-062-231400-
NORTHEAST MONTANA

CITY           SKY/WX    TMP DP  RH WIND       PRES   REMARKS
GLASGOW        CLOUDY    26  24  92 S3        29.73F
JORDAN           N/A     24  21  88 E12       29.71F WCI  13
SIDNEY         CLOUDY    27  24  89 S7        29.76F WCI  19
WOLF POINT     CLOUDY    29  25  85 E5        29.77R
PLENTYWOOD       N/A     21  19  93 NW8       29.75S WCI  12
POPLAR           N/A     27  23  86 NE8       29.76F WCI  18
$$

MTZ028>42-056>058-231400-
SOUTHCENTRAL AND SOUTHEAST MONTANA

CITY           SKY/WX    TMP DP  RH WIND       PRES   REMARKS
BAKER          FOG       19  17  92 SE17      29.71F VSB 1/2 WCI   4
BILLINGS       CLOUDY    17  15  92 NW10      29.63F WCI   5
LIVINGSTON     CLOUDY    18  13  80 NW10      29.59S WCI   6
MILES CITY     CLOUDY    22  19  89 E7        29.70F FOG     WCI  13
BIG TIMBER     CLEAR     21  18  86 CALM      29.62S
FORSYTH          N/A     19  19 100 E3        29.67F VSB 1/2
HARLOWTON        N/A     18  17  94 N7        29.61F WCI   9
LAUREL           N/A     18  13  80 MISG      29.64S
$$

REGIONAL REPORTS...DAKOTAS

CITY           SKY/WX    TMP DP  RH WIND       PRES   REMARKS
WILLISTON      CLOUDY    27  23  85 N12       29.77S WCI  17
MINOT          CLOUDY    28  22  78 W8        29.75S WCI  20
DICKINSON      CLOUDY    23  19  85 CALM      29.73F
BEACH          CLOUDY    23  23 100 SE8       29.75F WCI  14
CROSBY         CLOUDY    21  19  93 NW17      29.78S WCI   7
TIOGA          CLOUDY    23  23 100 NW13      29.75F WCI  11
WATFORD CITY   CLOUDY    28  25  86 CALM      29.76S
BISMARCK       CLOUDY    29  24  82 W5        29.81R
GRAND FORKS    CLOUDY    32  26  78 W8        29.77S WCI  25
FARGO          CLOUDY    35  28  75 W5        29.80F
BUFFALO SD       N/A     19  13  77 CALM      29.65S
RAPID CITY     CLOUDY    21  20  96 SE7       29.67F WCI  12
$$

REGIONAL REPORTS...WYOMING/IDAHO/WASHINGTON

CITY           SKY/WX    TMP DP  RH WIND       PRES   REMARKS
GILLETTE       CLOUDY    31  25  78 VRB3      29.57F
SHERIDAN       CLOUDY    19  15  84 SW13      29.59F WCI   6
BUFFALO WY     CLOUDY    29  16  58 CALM      29.57F
CODY           CLOUDY    15  11  83 W3        29.58S
YELLOWSTONE LA   N/A     11   9  92 CALM      29.58F
IDAHO FALLS    CLOUDY    29  27  92 NE6       29.56F WCI  23
SALMON         CLOUDY     7   7 100 CALM      29.65F
BOISE          LGT SNOW  27  26  96 N3        29.58S FOG
SPOKANE        CLOUDY    31  29  92 CALM      29.67S FOG
$$

REGIONAL REPORTS...ALBERTA

CITY           SKY/WX    TMP DP  RH WIND       PRES   REMARKS
EDMONTON       CLOUDY    14   7  73 N2        29.86S
CALGARY        FOG       19  18  93 SE5       29.75S VSB 3/4
LETHBRIDGE     FOG       19  18  93 NE6       29.78S VSB 1/2 WCI  11
MEDICINE HAT   CLOUDY    19  18  93 NE7       29.81R WCI  10
WATERTON GATE    N/A     19  18  93 NE2         N/A
CARDSTON         N/A     19  18  93 NE1         N/A
MILK RIVER       N/A     18  18 100 N7          N/A  WCI   8
ONEFOUR          N/A     19  18  93 NW10        N/A  WCI   8
$$

REGIONAL REPORTS...SASKATCHEWAN

CITY           SKY/WX    TMP DP  RH WIND       PRES   REMARKS
SWIFT CURRENT  CLOUDY    16  14  93 NW10      29.73S WCI   3
REGINA         CLOUDY    18  14  86 W14       29.75S WCI   4
SASKATOON      FLURRIES  14   9  79 N14       29.81S WCI  -1
CYPRESS HILLS    N/A     14  10  85 N1          N/A
VAL MARIE        N/A     21  18  86 N7          N/A  WCI  13
ROCKGLEN         N/A     18  18 100 NW6         N/A  WCI   9
$$




USA.gov is the U.S. government's official web portal to all federal, state and local government web resources and services.